Погода в Хасурте

Россия / Республика Бурятия     52°16′51″N   108°52′17″E
темп.,
°C
ветер,
м/с
пор.,
м/с
влажн.,
%
обл.,
%
осадки,
мм/ч
давл.,
гПа
погр.,
м
6 марта, сб
сб623:00−18св2297100 0.1 103133
02:00−20ссв1298100 0.1 103020
05:00−20ссв1198100 0.0 102820
08:00−17ю1195100 0.0 102945
11:00−13ююз238643 0.0 1028271
14:00−8ю238869 0.1 1026364
17:00−6ю2390100 0.0 1025305
20:00−12зсз119572 0.0 102621
7 марта, вс
вс723:00−14ссз01910 0.0 102621
02:00−15ссв00930 0.0 102620
05:00−16ссв12948 0.0 102420
08:00−16ссв119541 0.0 102520
11:00−7ююв118296 0.0 1022328
14:00−4ю227762 0.0 1019455
17:00−4ююз12810 0.0 1017327
20:00−10с119334 0.0 101921
8 марта, пн
пн823:00−10ссз1195100 0.0 101921
02:00−10с0094100 0.0 101921
05:00−11юз1193100 0.0 101921
08:00−12зюз119052 0.0 102221
11:00−5ююз248647 0.0 1021329
14:000з5117457 0.1 10211685
17:00−3зсз3127416 0.1 10231490
20:00−10зсз22888 0.1 102821
9 марта, вт
вт923:00−13ссз22880 0.0 102920
02:00−15ссв128913 0.0 102920
05:00−16ссв239238 0.0 102832
08:00−16ссв229330 0.0 102658
11:00−7всв127652 0.0 1022335
14:00−3ю117750 0.0 1019483
17:00−3ююз118491 0.0 1019296
20:00−7з119496 0.0 102221
10 марта, ср
ср1023:00−9з119186 0.0 102421
02:00−11з119043 0.0 102621
05:00−11з11920 0.0 102821
08:00−12зюз11920 0.0 102921
11:00−4ююз22800 0.0 1027319
14:00−1ююз22780 0.0 1025497
17:00−1ю12770 0.0 1023404
20:00−7ссв12870 0.0 102321